• In Belarus
  • List of Countries
  • For 7 days
  • Water Temperature
  • Weather Map
  • Weather Widgets
  • user-avatar
    Login

    Hourly Weather Naftalan

    Today, 4 June, Thursday

    Time Temperature Precipitation Wind Pressure Humidity
    00:00 +25°C° 0 mm 3 mps 756 mmHg 60%
    01:00 +25°C° 0 mm 3 mps 756 mmHg 61%
    02:00 +25°C° 0 mm 2 mps 757 mmHg 63%
    03:00 +25°C° 0 mm 3 mps 757 mmHg 62%
    04:00 +25°C° 0 mm 3 mps 758 mmHg 63%
    05:00 +25°C° 0 mm 4 mps 758 mmHg 64%
    06:00 +25°C° 0 mm 5 mps 759 mmHg 65%
    07:00 +26°C° 0 mm 6 mps 759 mmHg 62%
    08:00 +28°C° 0 mm 7 mps 760 mmHg 58%
    09:00 +28°C° 0 mm 7 mps 761 mmHg 50%
    10:00 +28°C° 0 mm 7 mps 761 mmHg 50%
    11:00 +28°C° 0 mm 7 mps 760 mmHg 49%
    12:00 +28°C° 0 mm 6 mps 760 mmHg 49%
    13:00 +28°C° 0 mm 6 mps 760 mmHg 51%
    14:00 +28°C° 0 mm 6 mps 760 mmHg 52%
    15:00 +27°C° 0 mm 6 mps 760 mmHg 54%
    16:00 +26°C° 0 mm 5 mps 760 mmHg 57%
    17:00 +25°C° 0 mm 5 mps 760 mmHg 60%
    18:00 +23°C° 0 mm 4 mps 760 mmHg 63%
    19:00 +24°C° 0 mm 3 mps 760 mmHg 66%
    20:00 +22°C° 0 mm 3 mps 760 mmHg 69%
    21:00 +21°C° 0 mm 2 mps 761 mmHg 73%
    22:00 +22°C° 0 mm 1 mps 761 mmHg 74%
    23:00 +21°C° 0 mm 1 mps 761 mmHg 75%

    Tomorrow, 5 June, Friday

    Time Temperature Precipitation Wind Pressure Humidity
    00:00 +21°C° 0 mm 1 mps 761 mmHg 77%
    01:00 +21°C° 0 mm 1 mps 761 mmHg 78%
    02:00 +20°C° 0 mm 1 mps 760 mmHg 79%
    03:00 +20°C° 0 mm 1 mps 760 mmHg 80%
    04:00 +21°C° 0 mm 1 mps 761 mmHg 77%
    05:00 +21°C° 0 mm 2 mps 762 mmHg 73%
    06:00 +21°C° 0 mm 2 mps 762 mmHg 69%
    07:00 +24°C° 0 mm 2 mps 762 mmHg 62%
    08:00 +26°C° 0 mm 3 mps 762 mmHg 55%
    09:00 +28°C° 0 mm 3 mps 763 mmHg 48%
    10:00 +29°C° 0 mm 3 mps 763 mmHg 46%
    11:00 +30°C° 0 mm 3 mps 762 mmHg 44%
    12:00 +31°C° 0 mm 3 mps 762 mmHg 42%
    13:00 +30°C° 0 mm 4 mps 762 mmHg 43%
    14:00 +29°C° 0 mm 5 mps 762 mmHg 43%
    15:00 +29°C° 0 mm 6 mps 762 mmHg 44%
    16:00 +28°C° 0 mm 6 mps 762 mmHg 47%
    17:00 +27°C° 0 mm 5 mps 762 mmHg 50%
    18:00 +26°C° 0 mm 5 mps 763 mmHg 53%
    19:00 +25°C° 0 mm 4 mps 763 mmHg 55%
    20:00 +25°C° 0 mm 4 mps 764 mmHg 58%
    21:00 +24°C° 0 mm 3 mps 765 mmHg 61%
    22:00 +24°C° 0 mm 3 mps 765 mmHg 61%
    23:00 +24°C° 0 mm 3 mps 765 mmHg 61%

    Day after tomorrow, 6 June, Saturday

    Time Temperature Precipitation Wind Pressure Humidity
    00:00 +24°C° 0 mm 3 mps 765 mmHg 61%
    01:00 +22°C° 0 mm 3 mps 765 mmHg 62%
    02:00 +22°C° 0 mm 3 mps 765 mmHg 62%
    03:00 +22°C° 0 mm 3 mps 766 mmHg 63%
    04:00 +23°C° 0 mm 2 mps 766 mmHg 61%
    05:00 +24°C° 0 mm 2 mps 766 mmHg 59%
    06:00 +25°C° 0 mm 2 mps 766 mmHg 57%
    07:00 +26°C° 0 mm 2 mps 766 mmHg 53%
    08:00 +27°C° 0 mm 2 mps 767 mmHg 48%
    09:00 +28°C° 0 mm 2 mps 767 mmHg 44%
    10:00 +29°C° 0 mm 3 mps 766 mmHg 43%
    11:00 +29°C° 0 mm 4 mps 766 mmHg 42%
    12:00 +30°C° 0 mm 5 mps 766 mmHg 40%
    13:00 +30°C° 0 mm 5 mps 766 mmHg 40%
    14:00 +29°C° 0 mm 5 mps 765 mmHg 41%
    15:00 +29°C° 0 mm 5 mps 765 mmHg 41%
    16:00 +28°C° 0 mm 5 mps 765 mmHg 43%
    17:00 +28°C° 0 mm 4 mps 765 mmHg 45%
    18:00 +27°C° 0 mm 3 mps 765 mmHg 47%
    19:00 +26°C° 0 mm 3 mps 765 mmHg 50%
    20:00 +25°C° 0 mm 2 mps 766 mmHg 53%
    21:00 +24°C° 0 mm 2 mps 766 mmHg 57%
    22:00 +23°C° 0 mm 1 mps 766 mmHg 57%
    23:00 +23°C° 0 mm 1 mps 766 mmHg 58%

    7 June, Sunday

    Time Temperature Precipitation Wind Pressure Humidity
    00:00 +23°C° 0 mm 1 mps 766 mmHg 59%
    01:00 +23°C° 0 mm 1 mps 766 mmHg 59%
    02:00 +22°C° 0 mm 1 mps 765 mmHg 59%
    03:00 +21°C° 0 mm 2 mps 765 mmHg 58%
    04:00 +23°C° 0 mm 2 mps 766 mmHg 58%
    05:00 +23°C° 0 mm 2 mps 766 mmHg 57%
    06:00 +24°C° 0 mm 2 mps 766 mmHg 56%
    07:00 +25°C° 0 mm 2 mps 766 mmHg 52%
    08:00 +26°C° 0 mm 2 mps 766 mmHg 48%
    09:00 +27°C° 0 mm 1 mps 766 mmHg 44%
    10:00 +28°C° 0 mm 2 mps 766 mmHg 42%
    11:00 +29°C° 0 mm 2 mps 766 mmHg 40%
    12:00 +29°C° 0 mm 3 mps 765 mmHg 38%
    13:00 +29°C° 0 mm 3 mps 765 mmHg 37%
    14:00 +29°C° 0 mm 4 mps 765 mmHg 37%
    15:00 +29°C° 0 mm 4 mps 764 mmHg 37%
    16:00 +28°C° 0 mm 4 mps 764 mmHg 40%
    17:00 +27°C° 0 mm 4 mps 764 mmHg 43%
    18:00 +26°C° 0 mm 4 mps 764 mmHg 45%
    19:00 +25°C° 0 mm 4 mps 764 mmHg 49%
    20:00 +24°C° 0 mm 3 mps 765 mmHg 52%
    21:00 +22°C° 0 mm 3 mps 765 mmHg 55%
    22:00 +22°C° 0 mm 3 mps 764 mmHg 56%
    23:00 +22°C° 0 mm 3 mps 764 mmHg 56%

    8 June, Monday

    Time Temperature Precipitation Wind Pressure Humidity
    00:00 +23°C° 0 mm 2 mps 764 mmHg 57%
    01:00 +21°C° 0 mm 2 mps 764 mmHg 58%
    02:00 +21°C° 0 mm 2 mps 763 mmHg 60%
    03:00 +21°C° 0 mm 3 mps 763 mmHg 61%
    04:00 +23°C° 0 mm 2 mps 763 mmHg 59%
    05:00 +23°C° 0 mm 2 mps 764 mmHg 58%
    06:00 +24°C° 0 mm 2 mps 764 mmHg 56%
    07:00 +26°C° 0 mm 3 mps 763 mmHg 50%
    08:00 +27°C° 0 mm 3 mps 763 mmHg 43%
    09:00 +28°C° 0 mm 3 mps 763 mmHg 37%
    10:00 +29°C° 0 mm 4 mps 763 mmHg 35%
    11:00 +30°C° 0 mm 4 mps 763 mmHg 34%
    12:00 +30°C° 0 mm 5 mps 763 mmHg 32%
    13:00 +30°C° 0 mm 5 mps 762 mmHg 33%
    14:00 +30°C° 0 mm 5 mps 762 mmHg 34%
    15:00 +30°C° 0 mm 5 mps 761 mmHg 35%
    16:00 +28°C° 0 mm 5 mps 761 mmHg 40%
    17:00 +27°C° 0 mm 5 mps 761 mmHg 45%
    18:00 +26°C° 0 mm 5 mps 761 mmHg 51%
    19:00 +25°C° 0 mm 5 mps 762 mmHg 58%
    20:00 +23°C° 0 mm 5 mps 762 mmHg 65%
    21:00 +22°C° 0 mm 5 mps 762 mmHg 72%
    22:00 +22°C° 0 mm 5 mps 762 mmHg 73%
    23:00 +22°C° 0 mm 5 mps 762 mmHg 74%

    9 June, Tuesday

    Time Temperature Precipitation Wind Pressure Humidity
    00:00 +22°C° 0 mm 4 mps 762 mmHg 76%
    01:00 +21°C° 0 mm 4 mps 762 mmHg 77%
    02:00 +21°C° 0 mm 4 mps 762 mmHg 78%
    03:00 +21°C° 0 mm 3 mps 762 mmHg 79%
    04:00 +22°C° 0 mm 3 mps 762 mmHg 74%
    05:00 +24°C° 0 mm 3 mps 762 mmHg 70%
    06:00 +24°C° 0 mm 3 mps 762 mmHg 66%
    07:00 +26°C° 0 mm 3 mps 762 mmHg 59%
    08:00 +27°C° 0 mm 4 mps 762 mmHg 53%
    09:00 +28°C° 0 mm 4 mps 762 mmHg 46%
    10:00 +29°C° 0 mm 4 mps 762 mmHg 44%
    11:00 +29°C° 0 mm 5 mps 762 mmHg 42%
    12:00 +30°C° 0 mm 5 mps 762 mmHg 40%
    13:00 +30°C° 0 mm 5 mps 762 mmHg 41%
    14:00 +29°C° 0 mm 5 mps 762 mmHg 42%
    15:00 +29°C° 0 mm 6 mps 761 mmHg 43%
    16:00 +28°C° 0 mm 5 mps 761 mmHg 45%
    17:00 +28°C° 0 mm 5 mps 761 mmHg 48%
    18:00 +27°C° 0 mm 5 mps 761 mmHg 50%
    19:00 +26°C° 0 mm 4 mps 762 mmHg 54%
    20:00 +25°C° 0 mm 3 mps 762 mmHg 59%
    21:00 +24°C° 0 mm 3 mps 762 mmHg 63%
    22:00 +24°C° 0 mm 2 mps 762 mmHg 62%
    23:00 +24°C° 0 mm 2 mps 762 mmHg 62%
    Show more